RADUGA 17 [-]

Last updated on Jan. 18, 2020, 4:38 a.m. UTC

1 16250U 85107A   20017.22158302 -.00000279  00000-0  00000-0 0  9997
2 16250  13.3879 337.2947 0007992 162.0943  18.7798  1.00170049128209
UTC
Height (km)
Latitude
Longitude
Inclination
Orbital Period
UTC large
Height (km)
Speed (km/s)
/
Latitude / Longitude
Inclination (degrees)
Orbital Period (minutes)
Azimuth
Elevation
Range (km)
Doppler Factor
iOS Compass Heading
iOS Angle

Next 30 passes for location: Hong Kong

Rise time Rise Azimuth (degrees) Set time Set Azimuth (degrees) Duration Max altitude (degrees)

No matching passes for this satellites